Regional Weather Roundup
Issued by NWS Upton, NY

Current Version | Previous Version | Graphics & Text | Print | Product List | Glossary Off
Versions: 1 2 3 4 5 6 7 8 9 10 11 12 13 14 15 16 17 18 19 20 21 22 23 24 25 26 27 28 29 30 31 32 33 34 35 36 37 38 39 40 41 42 43 44 45 46 47 48 49 50

000
ASUS41 KOKX 192305
RWROKX

REGIONAL WEATHER ROUNDUP
NATIONAL WEATHER SERVICE NEW YORK NY
700 PM EDT SUN OCT 19 2014

NOTE: "FAIR" INDICATES FEW OR NO CLOUDS BELOW 12,000 FEET WITH NO
SIGNIFICANT WEATHER AND/OR OBSTRUCTIONS TO VISIBILITY.

NYZ071-072-176-178-NJZ106-104-200000-
NEW YORK CITY METRO AREA


CITY           SKY/WX    TMP DP  RH WIND       PRES   REMARKS
CENTRAL PARK   CLEAR     49  26  41 MISG      30.04R
LAGUARDIA APRT PTCLDY    50  31  48 NW18G26   30.01R
KENNEDY INTL   PTCLDY    49  25  39 NW22G28   30.01R
NEWARK/LIBERTY PTCLDY    49  26  41 NW14G25   30.02R
BRNX BOT. GARD   N/A    N/A N/A N/A W16       30.03R
TETERBORO      CLEAR     48  26  42 NW16G24   30.01R
$$

NYZ177-179-078>081-200000-
LONG ISLAND NEW YORK

CITY           SKY/WX    TMP DP  RH WIND       PRES   REMARKS
FARMINGDALE    CLEAR     49  27  42 NW13G20   29.99R
ISLIP          PTCLDY    48  29  47 NW14      29.96R
SHIRLEY        NOT AVBL
WESTHAMPTON    CLEAR     48  26  42 NW16G23   29.97R
MONTAUK POINT    N/A     51  32  48 NW16G23   29.94R
$$

NYZ052-065-067-200000-
HUDSON VALLEY

CITY           SKY/WX    TMP DP  RH WIND       PRES   REMARKS
WHITE PLAINS   PTCLDY    46  26  45 NW14      29.98R
NEWBURGH       PTCLDY    43  28  56 NW9       30.02R
MONTGOMERY     CLEAR     44  26  49 MISG      30.02R
POUGHKEEPSIE   CLEAR     44  25  47 N8        30.02R
ALBANY         MOCLDY    44  24  45 NW12G18   30.01R
$$

NJZ001-105-106-008-010-013-015-019>022-104-200000-
NEW JERSEY

CITY           SKY/WX    TMP DP  RH WIND       PRES   REMARKS
NEWARK/LIBERTY PTCLDY    49  26  41 NW14G25   30.02R
TETERBORO      CLEAR     48  26  42 NW16G24   30.01R
CALDWELL       CLEAR     46  25  43 NW8       30.03R
MORRISTOWN     CLEAR     46  27  46 N7G14     30.02R
SOMERVILLE     CLEAR     45  28  51 CALM      30.01R
SUSSEX         CLEAR     44  27  51 CALM      30.03R
ANDOVER          N/A     42  27  55 N5        30.03R
TRENTON        CLEAR     48  26  42 CALM      30.02R
MILLVILLE      CLEAR     49  30  48 NW7       30.04R
ATLANTIC CITY  CLEAR     47  31  53 NW8       30.03R
WRIGHTSTOWN    CLEAR     45  31  57 NW5       30.01R
TOMS RIVER     CLEAR     45  32  61 CALM      30.03R
BELMAR         CLEAR     48  25  40 NW9       30.01R
$$

PAZ047>061-062-071-200000-
EASTERN PENNSYLVANIA

CITY           SKY/WX    TMP DP  RH WIND       PRES   REMARKS
PHILADELPHIA   PTCLDY    53  25  33 NW9       30.04R
ALLENTOWN      CLEAR     45  27  49 NW5       30.03R
SCRANTON       CLEAR     43  26  51 N6        30.03R
$$

CTZ002-004>006-009-010-012-RIZ004-006-007-MAZ004-011-015-200000-
SOUTHERN NEW ENGLAND
 IN CT

CITY           SKY/WX    TMP DP  RH WIND       PRES   REMARKS
BRADLEY INTL   PTCLDY    45  26  47 NW18G29   29.95R
HARTFORD       CLEAR     45  26  47 W12G20    29.96R
DANBURY        CLEAR     44  26  49 NW8       30.00R
WTRBRY/OXFORD  PTCLDY    43  25  49 N9        29.97R
BRIDGEPORT     CLEAR     47  28  47 NW12      29.99R
MERIDEN        CLEAR     44  25  47 NW8       29.98R
NEW HAVEN      PTCLDY    49  26  41 N12G21    29.98R
CHESTER        FAIR      45  28  53 NW14      29.95R
GROTON         CLEAR     47  29  49 NW16G22   29.93R
WILLIMANTIC    MOCLDY    47  28  47 NW10G21   29.94R

 IN RI

CITY           SKY/WX    TMP DP  RH WIND       PRES   REMARKS
PROVIDENCE     PTCLDY    49  30  48 NW12      29.90R
BLOCK ISLAND   CLOUDY    50  28  43 NW15G24   29.90R
WESTERLY       PTCLDY    48  29  47 NW8       29.92R

 IN MA

CITY           SKY/WX    TMP DP  RH WIND       PRES   REMARKS
BOSTON         CLOUDY    48  28  46 NW20G25   29.89R
WORCESTER      CLOUDY    43  28  55 NW10      29.89R
WESTFIELD      CLEAR     44  26  49 NW15G25   29.95R
PROVINCETOWN   CLOUDY    52  34  50 NW22G30   29.85R
NANTUCKET      CLOUDY    52  34  50 N14G25    29.83R
$$

ANZ330-335-338-340-345-350-353-355-200000-
COASTAL MARINE OBSERVATIONS


STATION/POSITION TIME  SKY/WX   TEMP    WIND        PRES    VSBY  WAVE
                                AIR SEA DIR/SP/G                  HT/PER
                 (UTC)          (F)     (DEG/KT/KT) (MB)    (MI)  (FT/S)
NY HARB ENTRANCE NOT AVBL
4S FIRE IS       2300               64                N/A           4/13
20S FIRE ISLAND  2300            52 64  320/ 21/ 29 1014.4          5/ 5
23SW MTP         2200                                 N/A           4/ 5
HUDSON CANYON    2300            54 66  320/ 23/ 27 1013.6          8/ 7
EXECUTION ROCKS  2300            51 64  280/ 16/ 25   N/A
WESTERN LI SOUND 2300            51     320/ 14/ 17   N/A           1/ 3
CENTRAL LI SOUND 2200            50 64  320/ 21/ 27   N/A           2/ 4
EASTERN LI SOUND 2200            52 64  320/ 17/ 21   N/A
ROBBINS REEF     2300            49     320/ 15/ 21 1014.9
$$


>>>>>>>>>>>>>>>>>>>>>>>>>>>> KEY <<<<<<<<<<<<<<<<<<<<<<<<<<<
>                                                          <
>     SKY/WX - SKY CONDITION/PRESENT WEATHER               <
>     TMP    - TEMPERATURE IN FAHRENHEIT                   <
>     DP     - DEWPOINT IN FAHRENHEIT                      <
>     RH     - RELATIVE HUMIDITY IN PERCENT                <
>     WIND   - DIRECTION AND SPEED IN MPH                  <
>     PRES   - MEAN SEA LEVEL PRESSURE IN INCHES OF HG     <
>     WCI    - WIND CHILL INDEX                            <
>     VSB    - VISIBILITY IN MILES                         <
>     HX     - HEAT INDEX                                  <
>     TC     - TEMPERATURE IN CELSIUS                      <
>     VRB    - VARIABLE WIND DIRECTION                     <
>                                                          <
>>>>>>>>>>>>>>>>>>>>>>>>>>>> KEY <<<<<<<<<<<<<<<<<<<<<<<<<<<





USA.gov is the U.S. government's official web portal to all federal, state and local government web resources and services.